Find Starlink 32902

NORAD ID: 62898 Int'l Des: 2025-024 Owner: SPXS Country: US Constellation: starlink operational
LEOCIRCULAR

Current View

Loading 3D Globe...

About Starlink 32902

Starlink 32902 (NORAD 62898) is a starlink constellation satellite (v2 mini) launched Feb 4, 2025 by SPXS of US. It operates in LEO, CIRCULAR orbit with a mass of 730.00 kg.

About Starlink 32902

Description loading...

Upcoming Passes

Passes for default location (London). Set your location on the main map for personalized predictions.

Altitude History

Loading altitude history...

Two-Line Element Set

1 62898U 25024V 26171.17057832 .00012584 00000-0 46584-3 0 9996
2 62898 42.9992 106.2026 0001140 268.3146 91.7575 15.27594547 77943
Epoch: Jun 20, 2026 • Age: 47 hours

Current Status

Altitude 486.5 km
Velocity 7.63 km/s
Sub-Earth Point 42.00°N, 154.18°W
Launch Date Feb 4, 2025
Age 1.3 years
Type internet

Technical Details

Classification Payload
Mass 730.00 kg
Dry Mass 700.00 kg
Total Mass 730.00 kg
Length 0.30 m
Diameter 4.10 m
Span 29.00 m
Shape Box + pan
Manufacturer SPXS
Bus Type Starlink V2M
Phase Status In Orbit
Owner/State SPXS/US

Most Searched